Weather History for Alexandria, MN

Change the Weather History Date:

Friday, February 14, 2014

  Actual Average Record
Temperature  
Mean Temperature -2 °F -  
Max Temperature 5 °F 22 °F 43 °F (1999)
Min Temperature -8 °F 3 °F -22 °F (1949)
Degree Days  
Heating Degree Days 66    
Moisture  
Dew Point -7 °F    
Average Humidity 78    
Maximum Humidity 83    
Minimum Humidity 69    
Precipitation  
Precipitation 0.00 in - - ()
Sea Level Pressure  
Sea Level Pressure 30.05 in    
Wind  
Wind Speed 8 mph (NW)    
Max Wind Speed 13 mph    
Max Gust Speed -    
Visibility 10 miles    
Events      
Averages and records for this station are not official NWS values.
T = Trace of Precipitation, MM = Missing Value Source: NWS Daily Summary

Daily Weather History Graph

Daily Weather History Graph

Search for Another Location

Airport:

Trip Planner

Search our weather history database for the weather conditions in past years. The results will help you decide how hot, cold, wet, or windy it might be!

Date:

Astronomy

Feb. 14, 2014 Rise Set
Actual Time 7:25 AM CST 5:46 PM CST
Civil Twilight 6:54 AM CST 6:17 PM CST
Nautical Twilight 6:19 AM CST 6:52 PM CST
Astronomical Twilight 5:45 AM CST 7:26 PM CST
Moon 5:54 PM CST (2/14) 6:51 AM CST (2/14)
Length of Visible Light 11h 22m
Length of Day
10h 21m
Full, 100% of the Moon is Illuminated
Feb 14
Full
Feb 14
Full
Feb 22
Last Quarter
Mar 1
New
Mar 8
First Quarter

Hourly Weather History & Observations

Time (CST) Temp. Windchill Dew Point Humidity Pressure Visibility Wind Dir Wind Speed Gust Speed Precip Events Conditions
12:53 AM -2.0 °F -12.2 °F -7.1 °F 79% 29.88 in 10.0 mi NW 4.6 mph - N/A   Clear
1:53 AM -2.9 °F -16.5 °F -8.0 °F 79% 29.88 in 10.0 mi NNW 6.9 mph - N/A   Clear
2:53 AM -4.0 °F -22.1 °F -8.0 °F 83% 29.91 in 10.0 mi NNW 11.5 mph - N/A   Clear
3:53 AM -5.1 °F -22.5 °F -9.0 °F 83% 29.93 in 10.0 mi NNW 10.4 mph - N/A   Clear
4:53 AM -6.0 °F -24.6 °F -9.9 °F 83% 29.95 in 10.0 mi North 11.5 mph - N/A   Clear
5:53 AM -6.0 °F -24.6 °F -11.0 °F 79% 29.98 in 10.0 mi NNW 11.5 mph - N/A   Clear
6:53 AM -8.0 °F -25.0 °F -11.9 °F 83% 30.02 in 10.0 mi NW 9.2 mph - N/A   Clear
7:53 AM -8.0 °F -26.1 °F -13.0 °F 79% 30.05 in 10.0 mi NW 10.4 mph - N/A   Clear
8:53 AM -5.1 °F -22.5 °F -9.9 °F 80% 30.07 in 10.0 mi NNW 10.4 mph - N/A   Clear
9:53 AM -0.9 °F -17.4 °F -8.0 °F 72% 30.08 in 10.0 mi NNW 10.4 mph - N/A   Clear
10:53 AM 3.0 °F -14.1 °F -5.1 °F 69% 30.10 in 10.0 mi NNW 12.7 mph - N/A   Clear
11:53 AM 3.9 °F -13.0 °F -2.9 °F 73% 30.11 in 10.0 mi NW 12.7 mph - N/A   Clear
12:53 PM 5.0 °F -10.8 °F -2.0 °F 73% 30.10 in 10.0 mi West 11.5 mph - N/A   Clear
1:53 PM 3.9 °F -13.0 °F -2.9 °F 73% 30.11 in 10.0 mi WNW 12.7 mph - N/A   Clear
2:53 PM 3.0 °F -14.1 °F -4.0 °F 73% 30.11 in 10.0 mi WNW 12.7 mph - N/A   Clear
3:53 PM 3.0 °F -12.5 °F -4.0 °F 73% 30.12 in 10.0 mi West 10.4 mph - N/A   Clear
4:53 PM 1.9 °F -10.6 °F -4.0 °F 76% 30.13 in 10.0 mi West 6.9 mph - N/A   Partly Cloudy
5:53 PM -0.0 °F -9.9 °F -6.0 °F 76% 30.10 in 10.0 mi NW 4.6 mph - N/A   Clear
6:53 PM -2.0 °F -13.9 °F -7.1 °F 79% 30.11 in 10.0 mi West 5.8 mph - N/A   Clear
7:53 PM -2.0 °F - -7.1 °F 79% 30.12 in 10.0 mi Calm Calm - N/A   Clear
8:53 PM -2.9 °F -11.2 °F -8.0 °F 79% 30.10 in 10.0 mi West 3.5 mph - N/A   Clear
9:53 PM -4.0 °F -12.4 °F -8.0 °F 83% 30.09 in 10.0 mi SSW 3.5 mph - N/A   Clear
10:53 PM -4.0 °F -14.6 °F -9.0 °F 79% 30.05 in 10.0 mi South 4.6 mph - N/A   Clear
11:53 PM -4.0 °F - -8.0 °F 83% 30.03 in 10.0 mi Calm Calm - N/A   Clear